234P/LINEAR (2002)

Japanese version
Home page
Updated on March 20, 2010

---------------------------------------------------------------------

* Profile

Designation 234P/2002 CF140
Discovery Date February 8, 2002
Magnitude 18.6 mag
Discoverer Lincoln Laboratory Near-Earth Asteroid Research project

* Orbital Elements

Epoch 2002 July 25.0 TT = JDT 2452480.5
T 2002 July 7.50635 TT                                  MPC
q   2.8502574            (2000.0)            P               Q
n   0.13240949     Peri.  358.11234     -0.99932557     -0.03671258
a   3.8123255      Node   179.77926     +0.03576233     -0.97778805
e   0.2523573      Incl.   11.52073     +0.00833433     -0.20635579
P   7.44

* Magnitudes Graph

        m1 = 12.5 + 5 log d + 10.0 log r

---------------------------------------------------------------------

The orbital elements are published on M.P.E.C. 2010-F02.
The magnitudes graphs are made with Comet for Windows.

---------------------------------------------------------------------

Copyright(C) Seiichi Yoshida (comet@aerith.net). All rights reserved.